Location: Conflandey
(47.7287°N, 6.0456°E)
Time: 00:27:09
(UTC+00:00)

Cosmos 1892 - Visible Passes

Search period start: 29 May 2022 00:00
Search period end: 08 June 2022 00:00
Orbit: 497 x 518 km, 82.5° (Epoch: 28 May)

Date Brightness Start Highest point End Pass type
(mag) Time Alt. Az. Time Alt. Az. Time Alt. Az.
29 May 3.0 02:45:49 10° S 02:49:33 67° E 02:53:17 10° NNE visible
30 May 3.4 02:28:28 10° S 02:32:07 51° E 02:35:47 10° NNE visible
31 May 3.9 02:11:10 10° SSE 02:14:41 39° E 02:18:12 10° NNE visible
01 Jun 4.3 01:53:57 10° SSE 01:57:16 30° E 02:00:35 10° NNE visible
02 Jun 4.6 01:36:47 10° SE 01:39:50 24° E 01:42:54 10° NE visible
03 Jun 5.0 01:19:44 10° SE 01:22:25 19° E 01:25:07 10° NE visible
03 Jun 3.6 02:54:19 10° SW 02:57:45 33° WNW 03:01:11 10° N visible
04 Jun 5.2 01:02:48 10° ESE 01:05:01 15° E 01:07:13 10° NE visible
04 Jun 3.2 02:36:52 12° SSW 02:40:12 42° WNW 02:43:48 10° N visible
05 Jun 5.3 00:46:10 10° ESE 00:47:36 12° E 00:49:02 10° ENE visible
05 Jun 2.9 02:19:40 15° SSW 02:22:39 55° WNW 02:26:21 10° N visible
06 Jun 2.6 02:02:27 18° SSW 02:05:06 73° W 02:08:52 10° N visible
07 Jun 2.6 01:45:12 21° S 01:47:34 86° E 01:51:20 10° N visible
